DMSP 5D-2 F14 DEB, 62937

Orbit data source: Space-Track

DMSP 5D-2 F14 DEB, 62937 is space debris in SSO originally from a launch on Fri, 04 Apr 1997 UTC launched from the Air Force Western Test Range (AFWTR). Debris objects in space refer to the collection of defunct objects orbiting the Earth. Examples of debris include non-operational satellites, rocket bodies, and fragments generated from explosions, collisions, or faulty payload assembly.

Loading next visibility...
Identifier
62937, 1997-012H
Orbit
SSO
Country
Flag of USUS
Related business
Manufacturer
LMT/EW
Mission
Spacecraft
Bus & Motor
Unknown
Mass
Unknown
Launch date (UTC)
1997-04-04 (29 years ago)
Launch vehicle
Unknown
Launch site
Air Force Western Test Range (AFWTR)
Object type
Payload
Rocket body
Debris
Shape & HBR
Unknown shape, 0.1 m
Radar Cross Section
Medium (>0.1 m² and <1 m²)

Expand to show TLE details & history
Last TLE update: 10 hours ago

TLE from 10 hours ago
0 DMSP 5D-2 F14 DEB
1 62937U 97012H   26171.43038727  .00030509  00000-0  78129-2 0  9993
2 62937  98.9889 236.9026 0011866  95.7600 264.4945 14.50214387 78449
Epoch: 2026-06-20T10:19Z
TLE epoch observation values (Epoch: 2026-06-20T10:19:45.460Z)
Latitude
-0.00005°
Longitude
173.31807°
Altitude
728.714 km
Speed
7.49 km/s
True Right ascension
15h 47m 36s
True Declination
0° 00' 00"
Sunlit
Object was in full shadow at epoch
Visualization orbit readout
Latitude
Unknown
Longitude
Unknown
Altitude
Unknown
Speed
Unknown
Apparent Right ascension
Unknown
Apparent Declination
Unknown
Sunlit
N/A
Visualization observer readout
Local Sidereal Time
07:16:32
Azimuth
Unknown
Elevation
Unknown
Doppler factor
Unknown
Orbital elements
Apogee altitude
730.506 km
Perigee altitude
713.655 km
Semi-major axis
7,100.217 km
Eccentricity
0.00119
Inclination
98.9889°
RAAN
236.9026°
Arg. of periapsis
95.76°
True anomaly
264.35917°
Mean anomaly
264.4945°
Eccentric anomaly
264.42683°
Mean motion
3.62774 °/min
Orbital period
99.24 mins
BSTAR
0.0078129
Loading maneuver chart data...
Computing Atmospheric mass density...

Documentation

Showing up to 5 results
|